STARLINK-37547, 68846

Orbit data source: Space-Track

STARLINK-37547, 68846 is a payload satellite owned by SpaceX/Seattle (US) in SSO that was launched on Sun, 26 Apr 2026 UTC via an FALCON 9 launch vehicle from the Air Force Western Test Range (AFWTR). Payload-class satellites include a variety of spacecraft equipped with specific instruments for various scientific and technological missions. These include communications satellites like Starlink; space stations such as the ISS; scientific satellites like the Hubble; Earth observation satellites from companies like Planet Labs, Umbra, and HawkEye 360; GPS; miniature CubeSats for education and research; and military/defense satellites.

Loading next visibility...
Identifier
68846, 2026-094H
Orbit
SSO
Country
Flag of USUS
Related business
Manufacturer
SpaceX/Seattle
Mission
Operational spacecraft
Bus & Motor
STARLINK V2MO, Unknown motor
Mass
575 kg wet, ~530 kg dry
Launch date (UTC)
2026-04-26 (2 months ago)
Launch vehicle
FALCON 9
Launch site
Air Force Western Test Range (AFWTR)
Object type
Payload
Rocket body
Debris
Shape & HBR
Unknown shape, 14.5 m
Radar Cross Section
Large (>1 m²)

Expand to show TLE details & history
Last TLE update: 20 hours ago

TLE from 20 hours ago
0 STARLINK-37547
1 68846U 26094H   26171.02249380  .00024320  00000-0  75302-3 0  9999
2 68846  97.2835 185.4381 0001429 109.0885 251.0513 15.33453633  8488
Epoch: 2026-06-20T00:32Z
TLE epoch observation values (Epoch: 2026-06-20T00:32:23.464Z)
Latitude
0.00003°
Longitude
-90.90275°
Altitude
468.947 km
Speed
7.632 km/s
True Right ascension
12h 21m 45s
True Declination
0° 00' 00"
Sunlit
Object was in daylight at epoch
Visualization orbit readout
Latitude
Unknown
Longitude
Unknown
Altitude
Unknown
Speed
Unknown
Apparent Right ascension
Unknown
Apparent Declination
Unknown
Sunlit
N/A
Visualization observer readout
Local Sidereal Time
07:14:15
Azimuth
Unknown
Elevation
Unknown
Doppler factor
Unknown
Orbital elements
Apogee altitude
463.438 km
Perigee altitude
461.483 km
Semi-major axis
6,840.597 km
Eccentricity
0.00014
Inclination
97.2835°
RAAN
185.4381°
Arg. of periapsis
109.0885°
True anomaly
251.03581°
Mean anomaly
251.0513°
Eccentric anomaly
251.04356°
Mean motion
3.83621 °/min
Orbital period
93.84 mins
BSTAR
0.00075302
Loading maneuver chart data...
Computing Atmospheric mass density...
Loading historical data...
Loading historical data...
Loading historical data...
Loading historical data...
Loading historical data...
Loading historical data...
Loading historical data...

Documentation

Showing up to 5 results
|